Location: Palomar Observatory
(33.3560°N, 116.8630°W)
Time: 16:14:54
(UTC-07:00)

Iridium 57 - Visible Passes

Search period start: 24 May 2015 00:00
Search period end: 03 June 2015 00:00
Orbit: 776 x 779 km, 86.4° (Epoch: 24 May)

Date Brightness Start Highest point End Pass type
(mag) Time Alt. Az. Time Alt. Az. Time Alt. Az.
24 May 7.1 01:18:20 31° NNW 01:18:20 31° NNW 01:21:02 10° N visible
25 May 7.2 00:44:50 31° NNE 00:44:50 31° NNE 00:47:31 10° N visible
26 May 7.5 00:11:20 22° NE 00:11:20 22° NE 00:13:35 10° NNE visible
26 May 7.7 01:51:48 17° NW 01:51:48 17° NW 01:53:40 10° NNW visible
26 May 7.9 23:37:50 14° NE 23:37:50 14° NE 23:38:59 10° NE visible
27 May 7.2 01:18:17 27° NNW 01:18:17 27° NNW 01:20:55 10° NNW visible
28 May 7.0 00:44:46 34° N 00:44:46 34° N 00:47:39 10° N visible
29 May 7.1 00:11:15 29° NNE 00:11:15 29° NNE 00:13:58 10° NNE visible
29 May 7.9 01:51:43 13° NW 01:51:43 13° NW 01:52:47 10° NW visible
29 May 7.5 23:37:44 20° NE 23:37:44 20° NE 23:39:50 10° NNE visible
30 May 7.5 01:18:11 22° NW 01:18:11 22° NW 01:20:37 10° NNW visible
30 May 7.9 23:04:12 11° ENE 23:04:12 11° ENE 23:04:40 10° NE visible
31 May 7.0 00:44:39 33° NNW 00:44:39 33° NNW 00:47:38 10° N visible
01 Jun 6.8 00:11:07 36° NNE 00:11:07 36° NNE 00:14:12 10° N visible
01 Jun 7.1 23:37:34 27° NE 23:37:34 27° NE 23:40:21 10° NNE visible
02 Jun 7.7 01:18:01 17° NW 01:18:01 17° NW 01:20:03 10° NW visible
02 Jun 7.6 23:04:00 17° ENE 23:04:00 17° ENE 23:05:56 10° NE visible
